"Pseudo-MPEC" for C07DCT2

Created 2019 Feb 19 1:18:12 UT using Find_Orb

Click here for an explanation of pseudo-MPECs

 
 Astrometry: 
     C07DCT2  C2019 02 043K/=IfuL?f;]L`o2v^SW_!(c7(i;AstrometryK;g^@PUC=+p6q1F52
     C07DCT2  C2019 02 04[=%us.^djM%oCl.cvc-9H#Pth$q:![b]ShXPpjtwIi@ow^k;k+cHF52
     C07DCT2  C2019 02 04:D9redacted;QQ[cWeY!_1JO+?i1A4p_\+BMD+X8PKj'--9Lg:2RF52
     C07DCT2  C2019 02 04Ic;?HRJDYH*7;4b+oI8.vY#beB#IDPPaEIcQt.0v8G7dvugi*=-%F52
     C07DCT2  C2019 02 12.32422 10 16 09.79 +04 13 09.1    ~2C8m 21.4 GVNEOCPG96
     C07DCT2  C2019 02 12.32710 10 16 09.56 +04 13 13.5    ~2C8m 22.0 GVNEOCPG96
     C07DCT2  C2019 02 12.32997 10 16 09.36 +04 13 16.6    ~2C8m 21.7 GVNEOCPG96
     C07DCT2  C2019 02 12A9B@c,r7n(3`*%fH!a5DE-GRf5[IE*!^AG2m^vLfZQ,(,n=Q9$RFV06
     C07DCT2  C2019 02 12xHe$ifk7%clickq3Q8m\DOBllM,q%Rl3V9:.;Y2_EWvJ)cUuVk?_V06
     C07DCT2  C2019 02 12A$rgkN[_6v#[ZWhc@x^PiX5#DA?pw`Np'sxb3i_+ltIRljLj(WY:V06
     C07DCT2  C2019 02 12?JjiQdg:w0S(M,)YxM,B/c!$/lwYherepLI_$3rd7KmmxSvXQ#sgV06
     C07DCT2  C2019 02 12gwf]Jjv(##h:K5-IB^[s;yF(ZNsKI[8!!PKkLSo)S7CX+[Hi=u*pV06
     C07DCT2  C2019 02 12MAnNCDS4K`]T9NRKT],IQd@LQqPlM#3A+0f^ykD\y7eQb?hHvHrMV06
     C07DCT2  C2019 02 120jax1lbQ*av(xv?forc'[(p)XrU,_!:XrDhb+@NQ)Y[jVch,\+3qV06
     C07DCT2 |C2019 02 14R;els^jO\(?adr$R$:^k1LOfr+P%oKNSpj.EjLF,g0Xl6`T(rZ18807
     C07DCT2 |C2019 02 147Dk-4SSoCY;*F%bluyS*[%dl=qb+]XBO#3\k@i`HUHoZ0a0cn:Ds807
     C07DCT2 |C2019 02 1431bexplanation4+yYLh@j7ul`0!@@pZC8/Zha/VrMr`3K@9::]+807

Station data:
(807) Cerro Tololo Observatory, La Serena  (S30.169136 W70.805900)  Chile.
   1.5-m Ritchey-Chrétien.
(F52) Pan-STARRS 2, Haleakala  (N20.707384 W156.255910)  US/Hawaii.
(G96) Mt. Lemmon Survey  (N32.442754 W110.788720)  US/Arizona.  Observers B.
   M. Africano, E. J. Christensen, G. A. Farneth, D. C. Fuls, A. R. Gibbs, A.
   D. Grauer, H. Groeller, J. A. Johnson, R. A. Kowalski, S. M. Larson, G. J.
   Leonard, R. L. Seaman, F. C. Shelly. 1.5-m reflector + 10K CCD.
(V06) Catalina Sky Survey-Kuiper  (N32.416847 W110.732550)  US/Arizona.
   Observers B. M. Africano, E. J. Christensen, G. A. Farneth, D. C. Fuls, A.
   R. Gibbs, A. D. Grauer, H. Groeller, J. A. Johnson, R. A. Kowalski, S. M.
   Larson, G. J. Leonard, R. L. Seaman, F. C. Shelly. 1.55-m reflector + CCD.

Orbital elements:  C07DCT2
   Perihelion 2018 Feb 1.259154 +/- 61.3 TT =  6:13:10 (JD 2458150.759154)
Epoch 2019 Feb 14.0 TT = JDT 2458528.5   Earth MOID: 0.8277   AutoNEOCP
M 137.80352529 +/- 20               (J2000 ecliptic)
n   0.36480970 +/- 0.00648          Peri.  210.60236 +/- 17
a   1.93980673 +/- 0.023            Node   156.06014 +/- 0.25
e   0.0591965 +/- 0.00691           Incl.   23.83963 +/- 1.5
P   2.70/986.80d           H 20.1   G  0.15   U  9.4  
q 1.82497680 +/- 0.0346    Q 2.05463667 +/- 0.011
From 17 observations 2019 Feb. 4-14; mean residual 0".33
Residuals in arcseconds: 
190204 F52  .13-  .04+    190212 G96  .59-  .04-    190212 V06  .23-  .03-    
190204 F52  .07+  .28+    190212 V06  .69+  .60-    190212 V06  .24+  .15-    
190204 F52  .25-  .50-    190212 V06  .18-  .57+    190214 807  .04+  .01-    
190204 F52  .33+  .18+    190212 V06  .15+  .36-    190214 807  .02-  .08-    
190212 G96  .72+  .26-    190212 V06  .58-  .18-    190214 807  .01+  .11+    
190212 G96  .15-  .49+    190212 V06  .11-  .41+    

Ephemerides (geocentric):
Date (UTC) HH   RA              Dec         delta   r     elong  mag " sig PA
---- -- -- --  -------------   -----------  ------ ------ -----  --- ---- ---
2019 02 19 01  10 09 36.018   +06 39 12.38  1.0434 2.0300 175.1 22.0 5.53 170
2019 02 19 02  10 09 33.523   +06 40 07.86  1.0434 2.0300 175.1 22.0 5.62 170
2019 02 19 03  10 09 31.028   +06 41 03.34  1.0434 2.0300 175.2 22.0 5.72 170
2019 02 19 04  10 09 28.533   +06 41 58.83  1.0434 2.0300 175.2 22.0 5.81 169
2019 02 19 05  10 09 26.038   +06 42 54.33  1.0434 2.0300 175.2 22.0 5.90 169
2019 02 19 06  10 09 23.542   +06 43 49.84  1.0434 2.0301 175.3 22.0 6.00 169
2019 02 19 07  10 09 21.047   +06 44 45.36  1.0434 2.0301 175.3 22.0 6.10 168
2019 02 19 08  10 09 18.550   +06 45 40.88  1.0433 2.0301 175.3 22.0 6.19 168
2019 02 19 09  10 09 16.054   +06 46 36.42  1.0433 2.0301 175.4 22.0 6.29 168
2019 02 19 10  10 09 13.558   +06 47 31.96  1.0433 2.0301 175.4 22.0 6.39 168
2019 02 19 11  10 09 11.061   +06 48 27.51  1.0433 2.0302 175.4 22.0 6.49 167
2019 02 19 12  10 09 08.564   +06 49 23.06  1.0433 2.0302 175.5 22.0 6.59 167
2019 02 19 13  10 09 06.067   +06 50 18.63  1.0433 2.0302 175.5 22.0 6.70 167
2019 02 19 14  10 09 03.569   +06 51 14.20  1.0433 2.0302 175.5 22.0 6.80 167
2019 02 19 15  10 09 01.072   +06 52 09.78  1.0433 2.0302 175.5 22.0 6.90 166
2019 02 19 16  10 08 58.574   +06 53 05.36  1.0432 2.0302 175.6 22.0 7.01 166
2019 02 19 17  10 08 56.076   +06 54 00.96  1.0432 2.0303 175.6 22.0 7.12 166
2019 02 19 18  10 08 53.578   +06 54 56.56  1.0432 2.0303 175.6 22.0 7.22 166
2019 02 19 19  10 08 51.079   +06 55 52.17  1.0432 2.0303 175.6 22.0 7.33 165
2019 02 19 20  10 08 48.581   +06 56 47.78  1.0432 2.0303 175.7 22.0 7.44 165
2019 02 19 21  10 08 46.082   +06 57 43.40  1.0432 2.0303 175.7 22.0 7.55 165
2019 02 19 22  10 08 43.584   +06 58 39.03  1.0432 2.0304 175.7 22.0 7.67 165
2019 02 19 23  10 08 41.085   +06 59 34.67  1.0432 2.0304 175.7 22.0 7.78 164
2019 02 20 00  10 08 38.586   +07 00 30.31  1.0432 2.0304 175.8 22.0 7.89 164
2019 02 20 01  10 08 36.087   +07 01 25.95  1.0432 2.0304 175.8 22.0 8.01 164
2019 02 20 02  10 08 33.587   +07 02 21.61  1.0432 2.0304 175.8 22.0 8.13 164
2019 02 20 03  10 08 31.088   +07 03 17.27  1.0432 2.0304 175.8 22.0 8.24 164
2019 02 20 04  10 08 28.588   +07 04 12.93  1.0432 2.0305 175.8 22.0 8.36 163
2019 02 20 05  10 08 26.089   +07 05 08.61  1.0432 2.0305 175.9 22.0 8.48 163
2019 02 20 06  10 08 23.589   +07 06 04.29  1.0432 2.0305 175.9 22.0 8.60 163
2019 02 20 07  10 08 21.089   +07 06 59.97  1.0432 2.0305 175.9 22.0 8.73 163
2019 02 20 08  10 08 18.590   +07 07 55.66  1.0432 2.0305 175.9 22.0 8.85 163
2019 02 20 09  10 08 16.090   +07 08 51.35  1.0432 2.0305 175.9 22.0 8.97 162
2019 02 20 10  10 08 13.590   +07 09 47.05  1.0432 2.0306 175.9 22.0 9.10 162
2019 02 20 11  10 08 11.090   +07 10 42.76  1.0432 2.0306 176.0 22.0 9.23 162
2019 02 20 12  10 08 08.590   +07 11 38.47  1.0432 2.0306 176.0 22.0 9.35 162
2019 02 20 13  10 08 06.090   +07 12 34.19  1.0432 2.0306 176.0 22.0 9.48 162
2019 02 20 14  10 08 03.589   +07 13 29.91  1.0432 2.0306 176.0 22.0 9.61 161
2019 02 20 15  10 08 01.089   +07 14 25.64  1.0432 2.0307 176.0 22.0 9.74 161
2019 02 20 16  10 07 58.589   +07 15 21.37  1.0432 2.0307 176.0 22.0 9.88 161
2019 02 20 17  10 07 56.089   +07 16 17.10  1.0432 2.0307 176.0 22.0 10.0 161
2019 02 20 18  10 07 53.589   +07 17 12.84  1.0432 2.0307 176.0 22.0 10.1 161
2019 02 20 19  10 07 51.088   +07 18 08.59  1.0432 2.0307 176.0 22.0 10.3 161
2019 02 20 20  10 07 48.588   +07 19 04.34  1.0432 2.0307 176.1 22.0 10.4 160
2019 02 20 21  10 07 46.088   +07 20 00.09  1.0432 2.0308 176.1 22.0 10.6 160
2019 02 20 22  10 07 43.588   +07 20 55.85  1.0432 2.0308 176.1 22.0 10.7 160
2019 02 20 23  10 07 41.088   +07 21 51.62  1.0432 2.0308 176.1 22.0 10.8 160
2019 02 21 00  10 07 38.588   +07 22 47.38  1.0432 2.0308 176.1 22.0 11.0 160